[Iaude] MPEC V14: 2016 UJ101 [a=1.24,e=0.22,i=26.2,H=20.4]

mpec at si.edu mpec at si.edu
Wed Nov 2 15:01:49 EDT 2016


M.P.E.C. 2016-V14                                Issued 2016 Nov. 2, 18:58 UT
 
     The Minor Planet Electronic Circulars contain information on unusual
         minor planets and routine data on comets.  They are published
    on behalf of Division F of the International Astronomical Union by the
          Minor Planet Center, Smithsonian Astrophysical Observatory,
                          Cambridge, MA 02138, U.S.A.

             Prepared using the Tamkin Foundation Computer Network

                              MPC at CFA.HARVARD.EDU
            URL http://www.minorplanetcenter.net/    ISSN 1523-6714


                                  2016 UJ101
 
Observations:
     K16UA1J* C2016 10 31.41946 08 09 06.12 +38 13 21.2          20.5 rREV014G45
     K16UA1J  C2016 10 31.42355 08 09 05.52 +38 13 01.2          19.9 rREV014G45
     K16UA1J  C2016 10 31.42847 08 09 04.84 +38 12 36.5          19.9 rREV014G45
     K16UA1J  C2016 10 31.43333 08 09 04.14 +38 12 12.0          20.0 rREV014G45
     K16UA1J  C2016 10 31.43454 08 09 03.94 +38 12 05.8          19.6 rREV014G45
     K16UA1J KC2016 11 01.44712 08 06 51.11 +36 45 16.8          19.5 RqEV014H36
     K16UA1J KC2016 11 01.45218 08 06 50.38 +36 44 50.9          19.4 RqEV014H36
     K16UA1J KC2016 11 01.45720 08 06 49.66 +36 44 24.8          18.8 RqEV014H36
     K16UA1J KC2016 11 01.97155 08 05 42.75 +35 59 06.2          19.9 VqEV014Z99
     K16UA1J KC2016 11 01.97366 08 05 42.47 +35 58 55.1          19.8 VqEV014Z99
     K16UA1J KC2016 11 01.97599 08 05 42.11 +35 58 44.5          20.0 VqEV014Z99
     K16UA1J  C2016 11 02.42930 08 04 41.12 +35 18 57.6          19.2 RoEV014926
     K16UA1J  C2016 11 02.43156 08 04 40.79 +35 18 45.7          19.3 RoEV014926
     K16UA1J  C2016 11 02.43383 08 04 40.44 +35 18 33.5          19.1 RoEV014926
 
Observer details:
926 Tenagra II Observatory.  Observers M. Schwartz, P. R. Holvorcem.  Measurer
    M. Schwartz.  0.81-m f/7 Ritchey-Chretien + CCD.
G45 Space Surveillance Telescope, Atom Site.  Observers M. Blythe, R. Brungard,
    P. Festler, T. McVey, J. Paige, G. Spitz.  Measurers M. Cornell, A. Klein,
    J. Ruprecht, G. Ushomirsky, J. Varey, D. Woods.  3.5-m f/1 reflector + CCD.
H36 Sandlot Observatory, Scranton.  Observer G. Hug.  0.56-m reflector + CCD.
Z99 Clixby Observatory, Cleethorpes.  Observer A. Mickleburgh.  0.36-m f/8
    Schmidt-Cassegrain + CCD.
 
Orbital elements:
2016 UJ101                                               Earth MOID = 0.1080 AU
Epoch 2016 July 31.0 TT = JDT 2457600.5                 MPC
M 335.80434              (2000.0)            P               Q
n   0.71035980     Peri.  108.87557     +0.89668682     +0.22460188
a   1.2439907      Node   239.82689     -0.30104110     +0.94117746
e   0.2164088      Incl.   26.18278     +0.32454121     +0.25246579
P   1.39           H   20.4           G   0.15           U   9
Residuals in seconds of arc
161031 G45  0.3-  0.3-    161101 H36  0.9-  0.4-    161101 Z99  0.6-  1.3+
161031 G45  0.5-  0.2+    161101 H36  0.8-  0.1-    161102 926  0.6-  0.1-
161031 G45  0.3-  0.2+    161101 H36  0.7-  0.2-    161102 926  0.5-  0.0
161031 G45  0.5-  0.1+    161101 Z99  0.1-  0.1-    161102 926  0.7-  0.2-
161031 G45  0.8-  0.1-    161101 Z99  0.1-  0.3-

Ephemeris:
2016 UJ101               a,e,i = 1.24, 0.22, 26                  q = 0.9748
Date    TT    R. A. (2000) Decl.     Delta      r     Elong.  Phase     V
2016 10 03    09 04 22.4 +66 15 14   0.3740  1.0038    79.7    78.8    21.0
...
2016 10 18    08 35 04.2 +54 04 15   0.3121  1.0374    88.7    73.8    20.5
...
2016 10 26    08 20 09.7 +45 19 53   0.2795  1.0591    95.7    69.1    20.2
...
2016 11 01    08 07 49.4 +37 23 59   0.2577  1.0767   102.2    64.3    19.9
2016 11 02    08 05 37.4 +35 57 03   0.2545  1.0797   103.3    63.4    19.8
2016 11 03    08 03 22.6 +34 27 54   0.2514  1.0828   104.5    62.5    19.8
...
2016 11 09    07 48 52.5 +24 49 02   0.2364  1.1016   112.2    56.4    19.5
...
2016 11 17    07 26 45.0 +10 35 54   0.2286  1.1277   122.4    47.8    19.3
...
2016 12 02    06 38 45.1 -13 26 13   0.2592  1.1785   133.1    37.6    19.3

A. U. Tomatic                (C) Copyright 2016 MPC           M.P.E.C. 2016-V14




More information about the Iaude mailing list